Flag for Canada Weather past 2 weeks in Arviat, Nunavut Territory, Canada

Now
48 °F

Overcast.


Feels Like: 44 °F
Forecast: 40 / 54 °F
Wind: 9 mph from Northwest

Location: Arviat Airport

Current Time: Aug 23, 2014 at 11:08:26 AM

Latest Report: Aug 23, 2014 at 10:00 AM


Visibility: 15 mi

Pressure: 30.50 "Hg

Humidity: 58%

Dew point: 34 °F

Location of ArviatLocation

Historic Weather in Arviat — Graph

°F

Arviat temperature yesterday

Maximum temperature yesterday: 52 °F (at 3:00 PM)
Minimum temperature yesterday: 41 °F (at 6:00 AM)
Average temperature yesterday: 47 °F

Past Weeks' High & Low Weather Summary

 TemperatureHumidityPressure
High72 °F (Aug 14, 1:00 PM)100% (Aug 9, 2:00 AM)30.50 "Hg (Aug 9, 2:00 AM)
Low36 °F (Aug 19, 5:00 AM)43% (Aug 13, 1:00 PM)29.43 "Hg (Aug 14, 11:00 AM)
Average49 °F83%29.91 "Hg
* Reported Aug 8 10:00 AM — Aug 23 10:00 AM, Arviat, Weather by CustomWeather, © 2014

Note: Actual official high and low records may vary slightly from our data, if they occured in-between our weather recording intervals... More about our weather records

Advertising

Arviat weather history for previous 24 hours

 ConditionsComfort  
Time TempWeatherWind HumidityBarometerVisibility
10:00 AM
Aug 23
48 °FOvercast.9 mph58%30.50 "Hg15 mi
9:00 AM46 °FOvercast.8 mph71%30.49 "Hg15 mi
8:00 AM45 °FOvercast.8 mph81%30.48 "Hg9 mi
7:00 AM45 °FOvercast.10 mph81%30.48 "Hg9 mi
6:00 AM45 °FOvercast.10 mph81%30.47 "Hg9 mi
5:00 AM45 °FOvercast.9 mph81%30.45 "Hg9 mi
4:00 AM45 °FOvercast.13 mph81%30.45 "Hg9 mi
3:00 AM45 °FOvercast.12 mph81%30.44 "Hg9 mi
2:00 AM45 °FOvercast.9 mph81%30.44 "Hg9 mi
1:00 AM46 °FOvercast.13 mph76%30.43 "Hg9 mi
12:00 AM46 °FOvercast.12 mph76%30.42 "Hg9 mi
11:00 PM
Aug 22
46 °FOvercast.12 mph76%30.41 "Hg9 mi
10:00 PM46 °FOvercast.13 mph82%30.40 "Hg9 mi
9:00 PM48 °FOvercast.14 mph76%30.39 "Hg9 mi
8:00 PM48 °FOvercast.8 mph82%30.38 "Hg9 mi
7:00 PM50 °FOvercast.14 mph62%30.37 "Hg9 mi
6:00 PM50 °FOvercast.14 mph71%30.35 "Hg9 mi
5:00 PM50 °FOvercast.14 mph67%30.34 "Hg15 mi
4:00 PM52 °FOvercast.16 mph58%30.33 "Hg15 mi
3:00 PM52 °FOvercast.17 mph62%30.31 "Hg15 mi
2:00 PM50 °FOvercast.20 mph67%30.29 "Hg15 mi
1:00 PM50 °FOvercast.16 mph71%30.29 "Hg15 mi
12:00 PM50 °FMore clouds than sun.15 mph71%30.27 "Hg15 mi
11:00 AM50 °FPartly sunny.15 mph76%30.26 "Hg15 mi
Weather by CustomWeather, © 2014

See weather overviewHow to use our weather pages